Location: Newark
(39.6867°N, 100.6772°W)
Time: 01:02:06
(UTC+00:00)

Vanguard 1 Rocket - Pass Details

Date: 29 October 2019
Orbit: 651 x 4226 km, 34.3° (Epoch: 22 November)

Event Time Altitude Azimuth Distance (km) Brightness Sun altitude
Rises 21:22:12 0° 282° (WNW) 6,641 12.3 22.9°
Reaches altitude 10° 21:26:26 10° 276° (W) 6,039 12.3 22.3°
Maximum altitude 21:44:46 40° 216° (SW) 5,144 12.7 19.6°
Drops below altitude 10° 22:07:18 10° 157° (SSE) 7,220 12.2 16.1°
Sets 22:13:12 0° 150° (SSE) 7,986 12.2 15.1°
